STARLINK-32598, 62046

Orbit data source: Space-Track

STARLINK-32598, 62046 is a payload satellite owned by SpaceX/Seattle (US) in LEO that was launched on Thu, 21 Nov 2024 UTC via an FALCON 9 launch vehicle from the Air Force Eastern Test Range (AFETR). Payloads include a variety of satellites, spacecraft, and rockets equipped with specific instruments for various scientific and technological missions. These include communications satellites like Starlink; space stations such as the ISS; scientific satellites like the Hubble; Earth observation satellites from companies like Planet Labs, Umbra, and HawkEye 360; GPS; miniature CubeSats for education and research; and military/defense satellites.

Loading next visibility...
STARLINK-32598 details
Identifier
62046, 2024-216Q
Orbit
LEO
Last TLE update9 hours ago
Origin
Flag of USSpaceX/Seattle (US)
ManufacturerSpaceX/Seattle
MissionOperational spacecraft
Bus & MotorSTARLINK V2M, Unknown motor
Mass730 kg wet, ~700 kg dry
Launch date (UTC)
2024-11-21 (1 month ago)
Launch vehicle
FALCON 9
Launch site
Air Force Eastern Test Range (AFETR)
Object type
Payload
Rocket body
Debris
Shape & HBRUnknown
Radar Cross SectionLarge (>1 m²)

Expand to show TLE details & history

TLE from 9 hours ago
0 STARLINK-32598
1 62046U 24216Q   24361.03651720  .00001958  00000-0  54169-4 0  9995
2 62046  42.9964 234.8713 0002155 314.4102  45.6578 15.40672485  6463
Epoch: 2024-12-26T00:52Z
Definitive object data (Epoch: 2024-12-26T00:52:35.086Z)
Latitude0.00001°
Longitude126.70344°
Altitude442.87 km
Speed7.649 km/s
True Right ascension15h 39m 29s
True Declination0° 00' 00"
Sunlit
Object was in daylight at TLE epoch
Visualization TLE readout
Latitude11.55206°
Longitude137.03535°
Altitude442.393 km
Speed7.65 km/s
Apparent Right ascension18h 30m 24s
Apparent Declination-16° 48' 07"
Sunlit
Object is in daylight
Visualization observer readout
Local Sidereal Time09:38:16
Azimuth74.241° E
Elevation-43.357°
Doppler factor1
Orbital elements
Apogee altitude447.551 km
Perigee altitude444.61 km
Semi-major axis6,824.217 km
Eccentricity0.0002155
Inclination42.9964°
RAAN234.8713°
Arg. of periapsis314.4102°
True anomaly45.67546°
Mean anomaly45.6578°
Eccentric anomaly45.66663°
Mean motion3.85003 °/min
BSTAR0.000054169
Orbital period93.51 mins
Loading maneuver chart data...
Loading historical data...
Loading historical data...
Loading historical data...
Loading historical data...
Loading historical data...
Loading historical data...
Loading historical data...

STARLINK-32598 Visibility forecast

Observer location: undefined°, undefined

Span
Click to sort rows by Start time (UTC) header in descending order
Start Az.
Max El. time (UTC)
Max El. Az.
Max El.
End time (UTC)
End Az.
5 mins2024-12-26 19:48:06.781Z234.982° WSW2024-12-26 19:50:06.781Z130.693° SE42.451°2024-12-26 19:53:06.781Z75.086° E
5 mins2024-12-26 21:26:06.781Z286.381° WNW2024-12-26 21:28:06.781Z356.992° N38.003°2024-12-26 21:31:06.781Z70.87° E
5 mins2024-12-26 23:04:06.781Z293.664° NW2024-12-26 23:06:06.781Z340.366° N41.297°2024-12-26 23:09:06.781Z93.583° ESE
4 mins2024-12-27 00:43:06.781Z252.819° W2024-12-27 00:44:06.781Z220.395° SW30.059°2024-12-27 00:47:06.781Z144.996° SSE
|